DW0805 Weather Reports


Display with metric or nautical units.
time (UTC)temp
F
wind
direction
speed
MPH
gust
MPH
rain 1hr
in
rain 24hr
in
rain mn
in
humidity
%
barometer
mb
20260831001515 59 199 3.0 6.0 0.00 0.17 0.00 93 1008.3
20260831000515 59 205 2.0 5.0 0.00 0.17 0.00 93 1008.3
20260830233514 59 226 3.0 5.0 0.00 0.17 0.00 92 1008.1
20260830232515 59 226 2.0 3.0 0.00 0.17 0.00 92 1008.1
20260830230514 60 226 2.0 5.0 0.00 0.17 0.00 92 1008.2
20260830221509 61 256 6.0 10.0 0.00 0.17 0.00 90 1008.1
20260830220515 61 263 7.0 9.0 0.00 0.17 0.00 90 1008.0
20260830214516 62 250 7.0 12.0 0.00 0.17 0.17 89 1008.1
20260830211515 62 260 9.0 15.0 0.00 0.17 0.17 90 1008.1
20260830205514 62 249 7.0 13.0 0.00 0.17 0.17 91 1008.0
20260830204514 62 249 5.0 7.0 0.00 0.17 0.17 91 1007.8
20260830203515 62 234 3.0 6.0 0.00 0.17 0.17 91 1007.7
20260830201516 62 240 7.0 12.0 0.00 0.17 0.17 91 1007.7
20260830195514 62 246 6.0 10.0 0.00 0.17 0.17 91 1007.3
20260830194515 62 229 6.0 12.0 0.00 0.17 0.17 92 1007.3
20260830191515 62 248 5.0 9.0 0.00 0.17 0.17 92 1006.8
20260830182516 62 318 6.0 13.0 0.00 0.17 0.17 93 1006.2
20260830180515 62 284 9.0 16.0 0.02 0.17 0.17 93 1005.9
20260830174515 63 327 6.0 12.0 0.02 0.17 0.17 94 1005.4
20260830173514 63 282 8.0 16.0 0.02 0.17 0.17 94 1005.3
20260830171515 63 298 9.0 21.0 0.02 0.17 0.17 93 1005.0
20260830170514 63 305 9.0 16.0 0.00 0.16 0.16 93 1004.7
20260830165515 63 299 6.0 14.0 0.00 0.16 0.16 93 1004.4
20260830163515 64 301 6.0 16.0 0.00 0.16 0.16 92 1004.0
20260830162515 64 303 10.0 18.0 0.00 0.16 0.16 92 1003.8
20260830161515 65 298 10.0 18.0 0.00 0.16 0.16 92 1003.4
20260830153515 68 279 12.0 20.0 0.00 0.16 0.16 88 1002.7
20260830151515 69 274 10.0 17.0 0.00 0.16 0.16 89 1002.5
20260830150515 69 273 12.0 16.0 0.00 0.16 0.16 90 1002.4
20260830144516 69 331 9.0 16.0 0.00 0.16 0.16 92 1002.2
20260830141515 67 322 7.0 12.0 0.00 0.16 0.16 93 1001.9
20260830134515 67 230 7.0 14.0 0.01 0.16 0.16 94 1001.8
20260830131515 66 216 6.0 16.0 0.08 0.16 0.16 94 1001.7
20260830130516 66 315 7.0 16.0 0.09 0.15 0.15 94 1001.6
20260830125516 66 224 9.0 14.0 0.09 0.15 0.15 94 1001.5
20260830123515 66 281 10.0 16.0 0.09 0.15 0.15 92 1001.4
20260830120516 70 194 9.0 15.0 0.00 0.06 0.06 87 1001.4
20260830113517 67 187 12.0 16.0 0.00 0.06 0.06 92 1001.4
20260830111517 66 197 8.0 14.0 0.00 0.06 0.06 92 1001.4
20260830104515 67 200 7.0 16.0 0.00 0.06 0.06 90 1001.5
20260830100515 68 183 5.0 14.0 0.00 0.06 0.06 92 1001.6
20260830094515 66 197 7.0 15.0 0.00 0.06 0.06 94 1001.7
20260830093515 66 330 4.0 12.0 0.01 0.06 0.06 95 1001.7
20260830090514 64 14 3.0 12.0 0.01 0.06 0.06 95 1001.9
20260830084516 64 137 5.0 10.0 0.01 0.06 0.06 95 1002.0
20260830082515 64 102 6.0 10.0 0.00 0.06 0.06 95 1002.1
20260830080514 63 152 7.0 13.0 0.00 0.06 0.06 95 1002.2
20260830074516 63 149 7.0 13.0 0.00 0.06 0.06 95 1002.3
20260830071515 62 146 6.0 12.0 0.01 0.06 0.06 95 1002.5
20260830065515 62 145 6.0 10.0 0.02 0.06 0.06 95 1002.6
20260830064515 62 145 5.0 12.0 0.06 0.06 0.06 95 1002.6
20260830061516 62 132 3.0 9.0 0.05 0.05 0.05 94 1002.7
20260830054515 62 89 4.0 9.0 0.00 0.00 0.00 94 1003.0
20260830053515 62 63 5.0 9.0 0.00 0.00 0.00 94 1003.1
20260830052515 62 123 5.0 13.0 0.00 0.00 0.00 94 1003.1
20260830050515 62 140 5.0 10.0 0.00 0.00 0.00 94 1003.3
20260830044516 61 123 5.0 8.0 0.00 0.00 0.00 94 1003.4
20260830043515 61 119 5.0 10.0 0.00 0.00 0.00 93 1003.5
20260830042516 61 116 5.0 10.0 0.00 0.00 0.00 93 1003.6
20260830041515 61 109 5.0 9.0 0.00 0.00 0.00 93 1003.7
20260830040515 61 119 6.0 9.0 0.00 0.00 0.00 93 1003.8
20260830035515 61 120 5.0 8.0 0.00 0.00 0.00 93 1004.0
20260830034516 61 106 3.0 8.0 0.00 0.00 0.00 93 1004.2
20260830031516 61 116 4.0 7.0 0.00 0.00 0.00 93 1004.4
20260830025515 62 163 3.0 7.0 0.00 0.00 0.00 92 1004.7
20260830024515 62 158 3.0 8.0 0.00 0.00 0.00 92 1004.9
20260830023515 62 136 3.0 7.0 0.00 0.00 0.00 92 1004.9
20260830020516 61 154 1.0 7.0 0.00 0.00 0.00 92 1005.0
20260830015516 62 158 2.0 8.0 0.00 0.00 0.00 93 1005.3
20260830012516 62 185 6.0 12.0 0.00 0.00 0.00 94 1005.6